• In India
  • List of Countries
  • For 7 days
  • Water Temperature
  • Satellite Maps
  • Weather Map
  • Weather Widgets
  • user-avatar
    Login

    Hourly Weather Algiers

    Today, 23 October, Monday

    Time Temperature Precipitation Wind Pressure Humidity
    00:00 +20°C° 0 mm 1 mps 754 mmHg 81%
    01:00 +20°C° 0.2 mm 1 mps 754 mmHg 81%
    02:00 +19°C° 0.2 mm 1 mps 754 mmHg 82%
    03:00 +19°C° 0.2 mm 1 mps 754 mmHg 82%
    04:00 +19°C° 0.3 mm 1 mps 754 mmHg 83%
    05:00 +19°C° 0.3 mm 1 mps 754 mmHg 83%
    06:00 +18°C° 0.3 mm 2 mps 754 mmHg 84%
    07:00 +19°C° 0.2 mm 2 mps 754 mmHg 80%
    08:00 +20°C° 0.2 mm 3 mps 754 mmHg 75%
    09:00 +22°C° 0.2 mm 3 mps 755 mmHg 71%
    10:00 +22°C° 0.2 mm 3 mps 755 mmHg 68%
    11:00 +23°C° 0.2 mm 4 mps 755 mmHg 66%
    12:00 +23°C° 0.2 mm 4 mps 754 mmHg 64%
    13:00 +23°C° 0 mm 4 mps 754 mmHg 65%
    14:00 +23°C° 0 mm 4 mps 754 mmHg 66%
    15:00 +23°C° 0 mm 4 mps 753 mmHg 67%
    16:00 +22°C° 0 mm 4 mps 754 mmHg 70%
    17:00 +21°C° 0 mm 3 mps 754 mmHg 74%
    18:00 +20°C° 0 mm 3 mps 754 mmHg 77%
    19:00 +20°C° 0 mm 3 mps 754 mmHg 80%
    20:00 +19°C° 0 mm 2 mps 755 mmHg 82%
    21:00 +19°C° 0 mm 2 mps 755 mmHg 84%
    22:00 +18°C° 0 mm 2 mps 755 mmHg 85%
    23:00 +19°C° 0 mm 1 mps 755 mmHg 86%

    Tomorrow, 24 October, Tuesday

    Time Temperature Precipitation Wind Pressure Humidity
    00:00 +19°C° 0 mm 1 mps 755 mmHg 88%
    01:00 +18°C° 0 mm 1 mps 755 mmHg 88%
    02:00 +18°C° 0 mm 1 mps 755 mmHg 88%
    03:00 +18°C° 0 mm 1 mps 754 mmHg 89%
    04:00 +16°C° 0 mm 1 mps 754 mmHg 88%
    05:00 +16°C° 0 mm 1 mps 754 mmHg 88%
    06:00 +16°C° 0 mm 1 mps 754 mmHg 88%
    07:00 +18°C° 0 mm 1 mps 755 mmHg 78%
    08:00 +20°C° 0 mm 1 mps 755 mmHg 68%
    09:00 +21°C° 0 mm 1 mps 755 mmHg 59%
    10:00 +23°C° 0 mm 1 mps 755 mmHg 53%
    11:00 +24°C° 0 mm 2 mps 755 mmHg 47%
    12:00 +25°C° 0 mm 2 mps 755 mmHg 42%
    13:00 +25°C° 0 mm 2 mps 754 mmHg 42%
    14:00 +25°C° 0 mm 3 mps 754 mmHg 43%
    15:00 +25°C° 0 mm 3 mps 754 mmHg 43%
    16:00 +24°C° 0 mm 3 mps 754 mmHg 50%
    17:00 +21°C° 0 mm 3 mps 754 mmHg 56%
    18:00 +20°C° 0 mm 2 mps 754 mmHg 63%
    19:00 +20°C° 0 mm 2 mps 755 mmHg 65%
    20:00 +19°C° 0 mm 2 mps 755 mmHg 66%
    21:00 +19°C° 0 mm 2 mps 755 mmHg 68%
    22:00 +19°C° 0 mm 2 mps 755 mmHg 67%
    23:00 +18°C° 0 mm 2 mps 755 mmHg 65%

    Day after tomorrow, 25 October, Wednesday

    Time Temperature Precipitation Wind Pressure Humidity
    00:00 +18°C° 0 mm 2 mps 755 mmHg 64%
    01:00 +18°C° 0 mm 2 mps 755 mmHg 63%
    02:00 +18°C° 0 mm 2 mps 755 mmHg 62%
    03:00 +18°C° 0 mm 2 mps 755 mmHg 60%
    04:00 +18°C° 0 mm 2 mps 755 mmHg 60%
    05:00 +17°C° 0 mm 2 mps 755 mmHg 60%
    06:00 +17°C° 0 mm 2 mps 755 mmHg 60%
    07:00 +19°C° 0 mm 2 mps 755 mmHg 55%
    08:00 +21°C° 0 mm 2 mps 756 mmHg 50%
    09:00 +24°C° 0 mm 3 mps 756 mmHg 44%
    10:00 +25°C° 0 mm 3 mps 756 mmHg 41%
    11:00 +26°C° 0 mm 3 mps 756 mmHg 39%
    12:00 +27°C° 0 mm 3 mps 755 mmHg 36%
    13:00 +27°C° 0 mm 4 mps 755 mmHg 38%
    14:00 +27°C° 0 mm 4 mps 755 mmHg 40%
    15:00 +27°C° 0 mm 4 mps 755 mmHg 42%
    16:00 +25°C° 0 mm 4 mps 755 mmHg 51%
    17:00 +23°C° 0 mm 4 mps 755 mmHg 60%
    18:00 +21°C° 0 mm 4 mps 755 mmHg 69%
    19:00 +21°C° 0 mm 4 mps 756 mmHg 71%
    20:00 +20°C° 0 mm 4 mps 756 mmHg 74%
    21:00 +20°C° 0 mm 3 mps 757 mmHg 77%
    22:00 +20°C° 0 mm 3 mps 757 mmHg 75%
    23:00 +20°C° 0 mm 3 mps 756 mmHg 74%

    26 October, Thursday

    Time Temperature Precipitation Wind Pressure Humidity
    00:00 +19°C° 0 mm 3 mps 756 mmHg 73%
    01:00 +19°C° 0 mm 3 mps 756 mmHg 70%
    02:00 +19°C° 0 mm 3 mps 756 mmHg 68%
    03:00 +19°C° 0 mm 3 mps 756 mmHg 66%
    04:00 +19°C° 0 mm 3 mps 756 mmHg 63%
    05:00 +19°C° 0 mm 3 mps 756 mmHg 61%
    06:00 +19°C° 0 mm 3 mps 757 mmHg 59%
    07:00 +21°C° 0 mm 3 mps 757 mmHg 51%
    08:00 +24°C° 0 mm 3 mps 757 mmHg 44%
    09:00 +26°C° 0 mm 3 mps 758 mmHg 37%
    10:00 +27°C° 0 mm 3 mps 757 mmHg 33%
    11:00 +28°C° 0 mm 3 mps 757 mmHg 30%
    12:00 +30°C° 0 mm 3 mps 757 mmHg 26%
    13:00 +30°C° 0 mm 3 mps 757 mmHg 28%
    14:00 +29°C° 0 mm 4 mps 756 mmHg 30%
    15:00 +29°C° 0 mm 4 mps 756 mmHg 31%
    16:00 +28°C° 0 mm 4 mps 756 mmHg 40%
    17:00 +26°C° 0 mm 4 mps 756 mmHg 48%
    18:00 +24°C° 0 mm 3 mps 756 mmHg 56%
    19:00 +24°C° 0 mm 3 mps 757 mmHg 55%
    20:00 +22°C° 0 mm 3 mps 757 mmHg 54%
    21:00 +22°C° 0 mm 3 mps 757 mmHg 53%
    22:00 +23°C° 0 mm 2 mps 757 mmHg 49%
    23:00 +23°C° 0 mm 2 mps 757 mmHg 46%

    27 October, Friday

    Time Temperature Precipitation Wind Pressure Humidity
    00:00 +23°C° 0 mm 2 mps 756 mmHg 43%
    01:00 +23°C° 0 mm 2 mps 756 mmHg 41%
    02:00 +21°C° 0 mm 2 mps 756 mmHg 38%
    03:00 +21°C° 0 mm 2 mps 756 mmHg 36%
    04:00 +21°C° 0 mm 2 mps 756 mmHg 35%
    05:00 +21°C° 0 mm 2 mps 756 mmHg 33%
    06:00 +21°C° 0 mm 2 mps 756 mmHg 32%
    07:00 +24°C° 0 mm 1 mps 756 mmHg 29%
    08:00 +26°C° 0 mm 1 mps 756 mmHg 26%
    09:00 +27°C° 0 mm 1 mps 756 mmHg 23%
    10:00 +28°C° 0 mm 1 mps 756 mmHg 22%
    11:00 +29°C° 0 mm 2 mps 756 mmHg 21%
    12:00 +30°C° 0 mm 2 mps 755 mmHg 20%
    13:00 +30°C° 0 mm 2 mps 755 mmHg 23%
    14:00 +30°C° 0 mm 2 mps 755 mmHg 25%
    15:00 +29°C° 0 mm 2 mps 754 mmHg 27%
    16:00 +27°C° 0 mm 2 mps 754 mmHg 36%
    17:00 +26°C° 0 mm 2 mps 754 mmHg 44%
    18:00 +24°C° 0 mm 1 mps 754 mmHg 52%
    19:00 +23°C° 0 mm 1 mps 754 mmHg 53%
    20:00 +23°C° 0 mm 1 mps 754 mmHg 54%
    21:00 +22°C° 0 mm 1 mps 754 mmHg 55%
    22:00 +22°C° 0 mm 1 mps 754 mmHg 54%
    23:00 +20°C° 0 mm 0 mps 753 mmHg 52%

    28 October, Saturday

    Time Temperature Precipitation Wind Pressure Humidity
    00:00 +19°C° 0 mm 0 mps 753 mmHg 51%
    01:00 +19°C° 0 mm 0 mps 752 mmHg 50%
    02:00 +19°C° 0 mm 0 mps 752 mmHg 50%
    03:00 +18°C° 0 mm 0 mps 752 mmHg 49%
    04:00 +18°C° 0 mm 0 mps 752 mmHg 49%
    05:00 +20°C° 0 mm 1 mps 752 mmHg 49%
    06:00 +20°C° 0 mm 1 mps 751 mmHg 49%
    07:00 +21°C° 0 mm 1 mps 752 mmHg 46%
    08:00 +23°C° 0 mm 1 mps 752 mmHg 42%
    09:00 +25°C° 0 mm 1 mps 752 mmHg 38%
    10:00 +25°C° 0 mm 2 mps 752 mmHg 37%
    11:00 +26°C° 0 mm 2 mps 751 mmHg 36%
    12:00 +27°C° 0 mm 2 mps 751 mmHg 35%
    13:00 +27°C° 0 mm 2 mps 751 mmHg 36%
    14:00 +26°C° 0 mm 3 mps 750 mmHg 38%
    15:00 +26°C° 0 mm 3 mps 750 mmHg 40%
    16:00 +25°C° 0 mm 3 mps 750 mmHg 47%
    17:00 +22°C° 0 mm 3 mps 750 mmHg 54%
    18:00 +21°C° 0 mm 3 mps 750 mmHg 61%
    19:00 +20°C° 0 mm 3 mps 750 mmHg 64%
    20:00 +20°C° 0 mm 2 mps 751 mmHg 67%
    21:00 +19°C° 0 mm 2 mps 751 mmHg 70%
    22:00 +19°C° 0 mm 2 mps 751 mmHg 70%
    23:00 +19°C° 0 mm 2 mps 751 mmHg 70%

    29 October, Sunday

    Time Temperature Precipitation Wind Pressure Humidity
    00:00 +19°C° 0 mm 1 mps 750 mmHg 70%
    01:00 +19°C° 0 mm 1 mps 750 mmHg 70%
    02:00 +19°C° 0 mm 1 mps 750 mmHg 70%
    03:00 +19°C° 0 mm 1 mps 750 mmHg 70%
    04:00 +17°C° 0 mm 2 mps 750 mmHg 70%
    05:00 +17°C° 0 mm 2 mps 751 mmHg 71%
    06:00 +17°C° 0 mm 2 mps 751 mmHg 71%
    07:00 +18°C° 0 mm 3 mps 751 mmHg 64%
    08:00 +20°C° 0 mm 3 mps 752 mmHg 58%
    09:00 +22°C° 0 mm 4 mps 752 mmHg 51%
    10:00 +23°C° 0 mm 5 mps 752 mmHg 48%
    11:00 +25°C° 0 mm 5 mps 752 mmHg 46%
    12:00 +26°C° 0 mm 6 mps 752 mmHg 44%
    13:00 +24°C° 0 mm 6 mps 752 mmHg 46%
    14:00 +24°C° 0 mm 7 mps 752 mmHg 47%
    15:00 +24°C° 0 mm 7 mps 752 mmHg 49%
    16:00 +22°C° 0 mm 6 mps 752 mmHg 55%
    17:00 +21°C° 0 mm 6 mps 752 mmHg 60%
    18:00 +19°C° 0 mm 5 mps 752 mmHg 65%
    19:00 +19°C° 0 mm 5 mps 753 mmHg 67%
    20:00 +18°C° 0 mm 4 mps 753 mmHg 69%
    21:00 +18°C° 0 mm 4 mps 753 mmHg 70%
    22:00 +18°C° 0 mm 4 mps 753 mmHg 71%
    23:00 +17°C° 0 mm 4 mps 753 mmHg 71%
    Show more